Location: Fargo
(46.8667°N, 96.7833°W)
Time: 10:33:59
(UTC-05:00)

Envisat - Visible Passes

Search period start: 19 October 2019 00:00
Search period end: 29 October 2019 00:00
Orbit: 764 x 766 km, 98.1° (Epoch: 19 October)

Date Brightness Start Highest point End Pass type
(mag) Time Alt. Az. Time Alt. Az. Time Alt. Az.
19 Oct 6.6 06:55:33 10° ENE 06:57:15 12° E 06:58:56 10° ESE visible
19 Oct 3.7 19:49:28 10° S 19:54:27 56° W 19:59:28 10° NNW visible
20 Oct 3.0 19:12:37 10° SSE 19:17:40 71° ENE 19:22:44 10° N visible
20 Oct 5.9 20:54:06 10° SW 20:57:13 16° W 21:00:21 10° NW visible
21 Oct 6.0 07:19:24 10° NE 07:23:06 20° E 07:26:46 10° SE visible
21 Oct 4.8 20:15:31 10° SSW 20:20:05 33° W 20:24:41 10° NNW visible
22 Oct 3.3 19:38:06 10° S 19:43:09 70° WSW 19:48:15 10° NNW visible
23 Oct 3.1 19:01:28 10° SSE 19:06:26 58° ENE 19:11:25 10° N visible
23 Oct 5.6 20:42:07 10° SW 20:45:50 20° W 20:49:33 10° NW visible
24 Oct 6.2 07:08:37 10° NE 07:11:42 16° E 07:14:47 10° SE visible
24 Oct 4.3 20:03:58 10° SSW 20:08:45 41° W 20:13:34 10° NNW visible
25 Oct 3.0 19:26:48 10° SSE 19:31:53 86° WSW 19:37:00 10° NNW visible
25 Oct 6.2 21:09:53 10° WSW 21:11:41 12° W 21:13:27 10° WNW visible
26 Oct 3.3 18:50:22 10° SE 18:55:12 46° ENE 19:00:04 10° N visible
26 Oct 5.3 20:30:19 10° SSW 20:34:27 25° W 20:38:37 10° NW visible
27 Oct 6.4 06:58:05 10° ENE 07:00:16 13° E 07:02:29 10° ESE visible
27 Oct 3.9 19:52:30 10° S 19:57:26 51° W 20:02:24 10° NNW visible
28 Oct 2.9 19:15:34 10° SSE 19:20:37 77° ENE 19:25:44 10° N visible
28 Oct 6.0 20:57:24 10° WSW 21:00:15 15° W 21:03:05 10° NW visible
